THOR 5

Last updated on Thu Nov 06 2025 00:02:46 GMT+0000 (Coordinated Universal Time)

1 32487U 08006A 25308.89072451 .00000000 00000+0 00000+0 0 9990 2 32487 0.0117 244.5732 0002501 342.8972 136.8103 1.00272663 65061
UTC large
Height (km)
Speed (km/s)
/
Latitude / Longitude
Inclination (degrees)
Orbital Period (minutes)
Azimuth
Elevation
Range (km)
Doppler Factor

Next 0 passes for location: London (51.5072 / 0.1276)

Sorry there are no passes over London.